Change the Weather History Date:

Saturday, March 8, 2014

  Actual Average (KRMG) Record (KRMG)
Temperature  
Mean Temperature 50 °F 50 °F  
Max Temperature 68 °F 62 °F 78 °F (2009)
Min Temperature 32 °F 38 °F 27 °F (2001)
Degree Days  
Heating Degree Days 15 15  
Month to date heating degree days 130  
Since 1 July heating degree days 2752  
Cooling Degree Days 0 0  
Month to date cooling degree days 0  
Year to date cooling degree days 0  
Moisture  
Dew Point 37 °F    
Average Humidity 46    
Maximum Humidity 100    
Minimum Humidity 28    
Precipitation  
Precipitation 0.00 in 0.18 in 2.20 in (1998)
Month to date precipitation 1.40  
Year to date precipitation 11.09  
Sea Level Pressure  
Sea Level Pressure 30.10 in    
Wind  
Wind Speed 3 mph (WSW)    
Max Wind Speed 14 mph    
Max Gust Speed 21 mph    
Visibility 9 miles    
Events      
T = Trace of Precipitation, MM = Missing Value Source: NWS Daily Summary

Daily Weather History Graph

Daily Weather History Graph

Search for Another Location

Airport or City:

Trip Planner

Search our weather history database for the weather conditions in past years. The results will help you decide how hot, cold, wet, or windy it might be!

Date:

Astronomy

Mar. 08, 2014 Rise Set
Actual Time 6:02 AM CST 5:44 PM CST
Civil Twilight 5:37 AM CST 6:10 PM CST
Nautical Twilight 5:08 AM CST 6:39 PM CST
Astronomical Twilight 4:39 AM CST 7:08 PM CST
Moon 10:59 AM CST (3/8) 12:26 AM CST (3/8)
Length of Visible Light 12h 32m
Length of Day
11h 42m
First Quarter, 52% of the Moon is Illuminated
Mar 8
First Quarter
Mar 16
Full
Mar 23
Last Quarter
Mar 30
New
Apr 7
First Quarter

Hourly Weather History & Observations

Time (CST) Temp. Windchill Dew Point Humidity Pressure Visibility Wind Dir Wind Speed Gust Speed Precip Events Conditions
12:15 AM 35.6 °F 32.8 °F - N/A% 30.04 in 10.0 mi NE 3.5 mph - N/A   Clear
12:35 AM 35.6 °F 32.8 °F - N/A% 30.04 in 10.0 mi NE 3.5 mph - N/A   Clear
12:55 AM 35.6 °F 32.8 °F - N/A% 30.05 in 10.0 mi SW 3.5 mph - N/A   Clear
1:15 AM 35.6 °F - - N/A% 30.05 in 10.0 mi Calm Calm - N/A   Clear
1:35 AM 35.6 °F - - N/A% 30.05 in 10.0 mi Calm Calm - N/A   Clear
1:55 AM 33.8 °F - - N/A% 30.05 in 10.0 mi Calm Calm - N/A   Clear
2:15 AM 33.8 °F - - N/A% 30.05 in 10.0 mi Calm Calm - N/A   Clear
2:35 AM 33.8 °F - - N/A% 30.05 in 10.0 mi Calm Calm - N/A   Clear
2:55 AM 33.8 °F - - N/A% 30.05 in 10.0 mi Calm Calm - N/A   Clear
3:15 AM 32.0 °F - - N/A% 30.06 in 10.0 mi Calm Calm - N/A   Clear
3:35 AM 32.0 °F - - N/A% 30.06 in 7.0 mi Calm Calm - N/A   Clear
3:55 AM 32.0 °F - - N/A% 30.07 in 7.0 mi Calm Calm - N/A   Clear
4:15 AM 32.0 °F - - N/A% 30.08 in 7.0 mi Calm Calm - N/A   Clear
4:35 AM 32.0 °F - - N/A% 30.09 in 7.0 mi Calm Calm - N/A   Clear
4:55 AM 32.0 °F - - N/A% 30.10 in 7.0 mi Calm Calm - N/A   Clear
5:15 AM 32.0 °F - - N/A% 30.10 in 7.0 mi Calm Calm - N/A   Clear
5:35 AM 32.0 °F - - N/A% 30.11 in 7.0 mi Calm Calm - N/A   Clear
5:50 AM 32.0 °F - - N/A% 30.11 in 7.0 mi Calm Calm - N/A   Clear
6:15 AM 32.0 °F - - N/A% 30.12 in 5.0 mi Calm Calm - N/A   Haze
6:35 AM 32.0 °F - - N/A% 30.13 in 5.0 mi Calm Calm - N/A   Haze
6:55 AM 32.0 °F - - N/A% 30.13 in 5.0 mi Calm Calm - N/A   Haze
7:15 AM 33.8 °F - - N/A% 30.14 in 7.0 mi Calm Calm - N/A   Clear
7:35 AM 37.4 °F - - N/A% 30.14 in 10.0 mi Calm Calm - N/A   Clear
7:55 AM 41.0 °F - - N/A% 30.15 in 10.0 mi Calm Calm - N/A   Clear
8:15 AM 42.8 °F - - N/A% 30.15 in 10.0 mi Calm Calm - N/A   Clear
8:35 AM 46.4 °F - 41.0 °F 81% 30.15 in 10.0 mi Calm Calm - N/A   Clear
8:55 AM 50.0 °F - 37.4 °F 62% 30.16 in 10.0 mi SW 3.5 mph - N/A   Clear
9:15 AM 53.6 °F - 37.4 °F 54% 30.16 in 10.0 mi SW 3.5 mph - N/A   Clear
9:35 AM 55.4 °F - 37.4 °F 51% 30.16 in 10.0 mi SSW 4.6 mph - N/A   Clear
9:55 AM 57.2 °F - 37.4 °F 48% 30.15 in 10.0 mi SSW 5.8 mph - N/A   Clear
10:15 AM 59.0 °F - 37.4 °F 45% 30.15 in 10.0 mi West 9.2 mph 19.6 mph N/A   Clear
10:40 AM 60.8 °F - 37.4 °F 42% 30.14 in 10.0 mi WSW 12.7 mph - N/A   Clear
10:55 AM 60.8 °F - 35.6 °F 39% 30.14 in 10.0 mi West 8.1 mph - N/A   Clear
11:15 AM 62.6 °F - 35.6 °F 37% 30.13 in 10.0 mi WSW 8.1 mph - N/A   Clear
11:35 AM 62.6 °F - 35.6 °F 37% 30.12 in 10.0 mi West 5.8 mph - N/A   Clear
11:55 AM 62.6 °F - 33.8 °F 34% 30.12 in 10.0 mi SW 12.7 mph - N/A   Clear
12:15 PM 64.4 °F - 33.8 °F 32% 30.11 in 10.0 mi West 9.2 mph 20.7 mph N/A   Clear
12:35 PM 64.4 °F - 33.8 °F 32% 30.11 in 10.0 mi WSW 12.7 mph 18.4 mph N/A   Clear
12:55 PM 64.4 °F - 35.6 °F 34% 30.10 in 10.0 mi West 5.8 mph - N/A   Clear
1:15 PM 64.4 °F - 35.6 °F 34% 30.09 in 10.0 mi SW 12.7 mph - N/A   Clear
1:35 PM 64.4 °F - 35.6 °F 34% 30.09 in 10.0 mi SW 13.8 mph 17.3 mph N/A   Clear
1:55 PM 64.4 °F - 35.6 °F 34% 30.08 in 10.0 mi WSW 11.5 mph 16.1 mph N/A   Clear
2:15 PM 66.2 °F - 33.8 °F 30% 30.07 in 10.0 mi SW 12.7 mph 18.4 mph N/A   Clear
2:35 PM 68.0 °F - 33.8 °F 28% 30.07 in 10.0 mi SW 8.1 mph 11.5 mph N/A   Clear
2:55 PM 66.2 °F - 33.8 °F 30% 30.07 in 10.0 mi West 5.8 mph - N/A   Clear
3:10 PM 66.2 °F - 33.8 °F 30% 30.07 in 10.0 mi West 10.4 mph 20.7 mph N/A   Clear
3:35 PM 66.2 °F - 33.8 °F 30% 30.07 in 10.0 mi WSW 11.5 mph 17.3 mph N/A   Clear
3:55 PM 66.2 °F - 33.8 °F 30% 30.07 in 10.0 mi WNW 8.1 mph - N/A   Clear
4:15 PM 66.2 °F - 33.8 °F 30% 30.07 in 10.0 mi WSW 11.5 mph 16.1 mph N/A   Clear
4:35 PM 64.4 °F - 33.8 °F 32% 30.07 in 10.0 mi West 8.1 mph - N/A   Clear
4:55 PM 64.4 °F - 33.8 °F 32% 30.08 in 10.0 mi West 8.1 mph - N/A   Clear
5:15 PM 62.6 °F - 33.8 °F 34% 30.08 in 10.0 mi West 5.8 mph - N/A   Clear
5:35 PM 62.6 °F - 35.6 °F 37% 30.08 in 10.0 mi West 4.6 mph - N/A   Clear
5:55 PM 60.8 °F - 35.6 °F 39% 30.08 in 10.0 mi Calm Calm - N/A   Clear
6:15 PM 57.2 °F - 37.4 °F 48% 30.09 in 10.0 mi Calm Calm - N/A   Clear
6:35 PM 53.6 °F - 41.0 °F 62% 30.09 in 10.0 mi Calm Calm - N/A   Clear
6:55 PM 51.8 °F - 41.0 °F 67% 30.10 in 10.0 mi Calm Calm - N/A   Clear
7:15 PM 51.8 °F - 41.0 °F 67% 30.10 in 10.0 mi Calm Calm - N/A   Clear
7:35 PM 50.0 °F - 41.0 °F 71% 30.11 in 10.0 mi Calm Calm - N/A   Clear
7:50 PM 50.0 °F - 42.8 °F 76% 30.11 in 10.0 mi Calm Calm - N/A   Clear
8:15 PM 46.4 °F - 42.8 °F 87% 30.11 in 10.0 mi Calm Calm - N/A   Clear
8:35 PM 44.6 °F - 44.6 °F 100% 30.12 in 10.0 mi Calm Calm - N/A   Clear
8:55 PM 44.6 °F - - N/A% 30.12 in 10.0 mi Calm Calm - N/A   Clear
9:15 PM 44.6 °F - - N/A% 30.13 in 10.0 mi Calm Calm - N/A   Clear
9:35 PM 42.8 °F - - N/A% 30.14 in 10.0 mi Calm Calm - N/A   Clear
9:55 PM 42.8 °F - - N/A% 30.14 in 10.0 mi Calm Calm - N/A   Clear
10:15 PM 41.0 °F - - N/A% 30.14 in 10.0 mi Calm Calm - N/A   Clear
10:35 PM 41.0 °F - - N/A% 30.14 in 10.0 mi Calm Calm - N/A   Clear
10:55 PM 41.0 °F - - N/A% 30.13 in 10.0 mi Calm Calm - N/A   Clear
11:15 PM 41.0 °F - - N/A% 30.14 in 10.0 mi Calm Calm - N/A   Clear
11:35 PM 41.0 °F - - N/A% 30.13 in 10.0 mi Calm Calm - N/A   Clear
11:55 PM 39.2 °F - - N/A% 30.14 in 10.0 mi Calm Calm - N/A   Clear